User: anonymous   Login
Location: Terra Rouge Observatory
(46.0000°N, 62.7500°W)
Time: 21:28:34
(UTC-03:00)
Language:

Landsat 5 - Orbit

View from above orbital plane
View from above orbital plane
View from above satellite
View from above satellite

Ground track
Ground track

The orbit data is extracted from the following two-line orbital elements,

1 14780U 84021A   17205.41489084 +.00000069 +00000-0 +12494-4 0  9997
2 14780 098.0429 318.1014 0091924 047.4269 313.4660 14.91514706781422
Epoch (UTC): 24 July 2017 09:57:26
Eccentricity: 0.0091924
inclination: 98.0429°
perigee height: 529 km
apogee height: 657 km
right ascension of ascending node: 318.1014°
argument of perigee: 47.4269°
revolutions per day: 14.91514706
mean anomaly at epoch: 313.4660°
orbit number at epoch: 78142

The dashed part of the orbit path shows where the satellite is in the earth's shadow,  

DLR